Regional Weather Roundup
Issued by NWS

Home | Current Version | Previous Version | Text Only | Print | Product List | Glossary On
Versions: 1 2 3 4 5 6 7 8 9 10 11 12 13 14 15 16 17 18 19 20 21 22 23 24 25 26 27 28 29 30 31 32 33 34 35 36 37 38 39 40 41 42 43 44 45 46 47 48
000
ASUS45 KSLC 150410
RWRUT

UTAH REGIONAL WEATHER ROUNDUP
NATIONAL WEATHER SERVICE SALT LAKE CITY UT
1000 PM MDT SUN SEP 14 2014

UTZ001>011-023>025-150500-

NORTHERN UTAH

CITY           SKY/WX    TMP DP  RH WIND       PRES   REMARKS
HILL AFB       PTCLDY    71  37  28 SE13      30.05S
LOGAN          CLEAR     60  45  57 CALM      30.05R
OGDEN          PTCLDY    69  41  36 S7        30.02S
PROVO AIRPORT  PTCLDY    64  50  59 CALM      30.05S
SALT LAKE CITY PTCLDY    72  42  34 SE7       30.01R
VERNAL         PTCLDY    62  42  47 W5        30.11R
WENDOVER       MOCLDY    73  30  20 CALM      30.01R
HEBER CITY     PTCLDY    54  43  66 SE5       30.14R
WEST JORDAN    CLEAR     70  39  32 CALM      30.05R

$$

UTZ012>022-026-027-150500-

SOUTHERN UTAH

CITY           SKY/WX    TMP DP  RH WIND       PRES   REMARKS
BRYCE CANYON   PTCLDY    52  41  66 W8        30.29R
CEDAR CITY     CLEAR     66  37  34 S6        30.12R
MILFORD        PTCLDY    69  38  32 SW7       30.06R
MOAB/CYNLANDS  CLEAR     70  40  33 W3        30.01S
PRICE          PTCLDY    68  29  23 N7        30.15R
ST GEORGE      PTCLDY    82  45  26 CALM      29.92S
KANAB            N/A     73  39  29 N7        30.10R

$$

REGIONAL REPORTS     COLORADO/ARIZONA

CITY           SKY/WX    TMP DP  RH WIND       PRES   REMARKS
CRAIG, CO      MOCLDY    58  41  53 CALM      30.19R
GRAND JUNCTION PTCLDY    67  37  33 E9        30.06R
RIFLE          PTCLDY    63  38  39 E10       30.14R
MONTROSE       PTCLDY    65  43  44 SE9       30.18R
CORTEZ         CLEAR     59  45  59 NE7       30.18R
PAGE, AZ       CLEAR     83  44  25 S8        30.01R
GRAND CANYON   PTCLDY    57  45  64 NE5       30.23R
KINGMAN        CLEAR     79  44  28 S12       29.96R
FLAGSTAFF      CLEAR     57  49  74 CALM      30.26R

$$

REGIONAL REPORTS    NEVADA/IDAHO/WYOMING

CITY           SKY/WX    TMP DP  RH WIND       PRES   REMARKS
LAS VEGAS, NV  PTCLDY    93  46  19 S9        29.80R
ELY            PTCLDY    62  32  32 S10       30.14R
ELKO           CLEAR     65  27  23 CALM      30.06R
POCATELLO, ID  CLEAR     66  26  22 S10       30.03S
BURLEY         PTCLDY    64  42  44 SE5       30.00R
EVANSTON, WY   PTCLDY    63  31  30 E5        30.24R
ROCK SPRINGS   PTCLDY    62  24  23 NW7       30.21R

$$


USA.gov is the U.S. government's official web portal to all federal, state and local government web resources and services.